N1058T KBTV-KORH

Flight info

Callsign N1058T
Flight time 1h 1m
Altitude VFR
Route
Aircraft P28A/L-DOV/C

Departure

Time 2026-05-07 23:16
Airport Patrick Leahy Burlington International Airport (KBTV)

Arrival

Time 2026-05-08 00:17
Airport Worcester Regional Airport (KORH)
Time Latitude Longitude Altitude Speed Heading
2026-05-07 23:10 44.46726 -73.15424 339 ft 0 kts 329°
2026-05-07 23:11 44.46737 -73.15423 338 ft 4 kts 47°
2026-05-07 23:11 44.46744 -73.15364 339 ft 8 kts 98°
2026-05-07 23:12 44.46723 -73.15299 339 ft 6 kts 136°
2026-05-07 23:12 44.46695 -73.15283 340 ft 3 kts 172°
2026-05-07 23:12 44.46685 -73.15280 340 ft 0 kts 171°
2026-05-07 23:12 44.46664 -73.15276 341 ft 10 kts 171°
2026-05-07 23:13 44.46596 -73.15230 343 ft 7 kts 122°
2026-05-07 23:13 44.46592 -73.15143 342 ft 18 kts 88°
2026-05-07 23:13 44.46598 -73.14892 343 ft 31 kts 89°
2026-05-07 23:13 44.46605 -73.14591 344 ft 29 kts 90°
2026-05-07 23:14 44.46523 -73.14383 352 ft 17 kts 129°
2026-05-07 23:14 44.46501 -73.14299 349 ft 5 kts 74°
2026-05-07 23:14 44.46514 -73.14274 351 ft 2 kts 39°
2026-05-07 23:14 44.46516 -73.14272 353 ft 0 kts 39°
2026-05-07 23:15 44.46525 -73.14262 349 ft 10 kts 38°
2026-05-07 23:15 44.46595 -73.14230 350 ft 7 kts 344°
2026-05-07 23:15 44.46619 -73.14249 349 ft 0 kts 306°
2026-05-07 23:15 44.46688 -73.14362 347 ft 48 kts 310°
2026-05-07 23:16 44.47033 -73.14949 408 ft 97 kts 308°
2026-05-07 23:16 44.47449 -73.15765 730 ft 111 kts 304°
2026-05-07 23:16 44.47773 -73.16745 1366 ft 105 kts 293°
2026-05-07 23:16 44.47772 -73.17718 1967 ft 106 kts 255°
2026-05-07 23:17 44.47292 -73.18540 2467 ft 116 kts 229°
2026-05-07 23:17 44.46475 -73.18861 2931 ft 134 kts 181°
2026-05-07 23:17 44.45548 -73.18404 3356 ft 146 kts 163°
2026-05-07 23:17 44.44628 -73.17763 3860 ft 146 kts 155°
2026-05-07 23:18 44.43868 -73.16911 4447 ft 143 kts 139°
2026-05-07 23:18 44.43136 -73.15867 4783 ft 154 kts 137°
2026-05-07 23:18 44.42398 -73.14783 5248 ft 153 kts 137°
2026-05-07 23:18 44.41665 -73.13693 5628 ft 159 kts 136°
2026-05-07 23:19 44.40862 -73.12502 5570 ft 171 kts 137°
2026-05-07 23:19 44.40035 -73.11276 5546 ft 174 kts 136°
2026-05-07 23:19 44.39200 -73.10038 5527 ft 175 kts 136°
2026-05-07 23:19 44.38365 -73.08799 5509 ft 175 kts 136°
2026-05-07 23:20 44.37569 -73.07510 5504 ft 176 kts 129°
2026-05-07 23:20 44.36873 -73.06130 5504 ft 176 kts 127°
2026-05-07 23:20 44.36197 -73.04712 5504 ft 175 kts 126°
2026-05-07 23:20 44.35530 -73.03282 5496 ft 175 kts 125°
2026-05-07 23:21 44.34874 -73.01862 5499 ft 173 kts 125°
2026-05-07 23:21 44.34219 -73.00452 5494 ft 173 kts 124°
2026-05-07 23:21 44.33578 -72.99039 5489 ft 172 kts 125°
2026-05-07 23:21 44.32916 -72.97637 5508 ft 174 kts 126°
2026-05-07 23:22 44.32249 -72.96219 5512 ft 175 kts 125°
2026-05-07 23:22 44.31581 -72.94779 5516 ft 178 kts 126°
2026-05-07 23:22 44.30921 -72.93347 5508 ft 178 kts 125°
2026-05-07 23:22 44.30249 -72.91889 5508 ft 179 kts 126°
2026-05-07 23:23 44.29580 -72.90425 5523 ft 179 kts 125°
2026-05-07 23:23 44.28902 -72.88951 5560 ft 182 kts 125°
2026-05-07 23:23 44.28218 -72.87471 5524 ft 180 kts 126°
2026-05-07 23:23 44.27544 -72.86001 5527 ft 180 kts 125°
2026-05-07 23:24 44.26872 -72.84539 5500 ft 177 kts 125°
2026-05-07 23:24 44.26211 -72.83113 5508 ft 174 kts 125°
2026-05-07 23:24 44.25552 -72.81691 5516 ft 175 kts 125°
2026-05-07 23:24 44.24904 -72.80287 5508 ft 174 kts 125°
2026-05-07 23:25 44.24251 -72.78868 5507 ft 173 kts 125°
2026-05-07 23:25 44.23600 -72.77453 5524 ft 174 kts 125°
2026-05-07 23:25 44.22937 -72.76027 5540 ft 176 kts 125°
2026-05-07 23:25 44.22272 -72.74579 5536 ft 177 kts 125°
2026-05-07 23:26 44.21599 -72.73132 5515 ft 177 kts 125°
2026-05-07 23:26 44.20930 -72.71698 5501 ft 176 kts 125°
2026-05-07 23:26 44.20267 -72.70273 5510 ft 174 kts 125°
2026-05-07 23:26 44.19831 -72.69337 5516 ft 174 kts 125°
2026-05-07 23:27 44.18288 -72.66041 5529 ft 176 kts 125°
2026-05-07 23:27 44.17612 -72.64615 5520 ft 176 kts 125°
2026-05-07 23:27 44.16931 -72.63185 5528 ft 177 kts 125°
2026-05-07 23:28 44.16473 -72.62216 5529 ft 178 kts 125°
2026-05-07 23:28 44.15793 -72.60794 5510 ft 178 kts 125°
2026-05-07 23:28 44.15113 -72.59369 5512 ft 176 kts 125°
2026-05-07 23:28 44.14439 -72.57939 5516 ft 177 kts 125°
2026-05-07 23:29 44.13765 -72.56506 5517 ft 177 kts 125°
2026-05-07 23:29 44.13088 -72.55068 5513 ft 177 kts 125°
2026-05-07 23:29 44.12418 -72.53632 5513 ft 176 kts 124°
2026-05-07 23:29 44.11747 -72.52197 5528 ft 177 kts 125°
2026-05-07 23:30 44.11078 -72.50775 5521 ft 178 kts 125°
2026-05-07 23:30 44.10395 -72.49309 5527 ft 179 kts 124°
2026-05-07 23:30 44.09739 -72.47869 5511 ft 178 kts 124°
2026-05-07 23:30 44.09082 -72.46409 5511 ft 178 kts 124°
2026-05-07 23:31 44.08422 -72.44954 5540 ft 178 kts 124°
2026-05-07 23:31 44.07738 -72.43520 5506 ft 176 kts 133°
2026-05-07 23:31 44.06770 -72.42525 5516 ft 172 kts 153°
2026-05-07 23:31 44.05729 -72.41705 5522 ft 172 kts 157°
2026-05-07 23:32 44.04670 -72.40925 5479 ft 170 kts 158°
2026-05-07 23:32 44.03632 -72.40193 5484 ft 169 kts 158°
2026-05-07 23:32 44.02568 -72.39497 5493 ft 167 kts 169°
2026-05-07 23:32 44.01433 -72.39332 5499 ft 163 kts 184°
2026-05-07 23:33 44.00302 -72.39311 5499 ft 162 kts 187°
2026-05-07 23:33 43.99170 -72.39324 5502 ft 162 kts 187°
2026-05-07 23:33 43.98036 -72.39356 5502 ft 163 kts 187°
2026-05-07 23:33 43.96903 -72.39397 5500 ft 162 kts 188°
2026-05-07 23:34 43.95774 -72.39445 5502 ft 163 kts 188°
2026-05-07 23:34 43.94636 -72.39495 5497 ft 164 kts 188°
2026-05-07 23:34 43.93496 -72.39537 5492 ft 164 kts 187°
2026-05-07 23:34 43.92371 -72.39518 5490 ft 164 kts 184°
2026-05-07 23:35 43.91235 -72.39460 5482 ft 163 kts 184°
2026-05-07 23:35 43.90097 -72.39394 5464 ft 163 kts 183°
2026-05-07 23:35 43.88967 -72.39326 5476 ft 163 kts 184°
2026-05-07 23:35 43.87834 -72.39225 5480 ft 164 kts 180°
2026-05-07 23:36 43.86707 -72.38928 5468 ft 165 kts 173°
2026-05-07 23:36 43.85584 -72.38573 5459 ft 165 kts 172°
2026-05-07 23:36 43.84464 -72.38190 5468 ft 166 kts 171°
2026-05-07 23:36 43.83365 -72.37799 5464 ft 165 kts 171°
2026-05-07 23:37 43.82253 -72.37403 5464 ft 165 kts 171°
2026-05-07 23:37 43.81133 -72.37005 5465 ft 166 kts 171°
2026-05-07 23:37 43.80014 -72.36595 5470 ft 167 kts 171°
2026-05-07 23:37 43.78887 -72.36187 5464 ft 167 kts 171°
2026-05-07 23:38 43.77758 -72.35785 5469 ft 168 kts 171°
2026-05-07 23:38 43.76625 -72.35378 5458 ft 168 kts 171°
2026-05-07 23:38 43.75489 -72.34974 5460 ft 168 kts 171°
2026-05-07 23:38 43.74357 -72.34570 5462 ft 167 kts 171°
2026-05-07 23:39 43.73230 -72.34173 5453 ft 166 kts 172°
2026-05-07 23:39 43.72123 -72.33793 5456 ft 166 kts 172°
2026-05-07 23:39 43.71003 -72.33406 5464 ft 166 kts 172°
2026-05-07 23:39 43.69885 -72.33020 5453 ft 165 kts 172°
2026-05-07 23:40 43.68774 -72.32642 5457 ft 164 kts 172°
2026-05-07 23:40 43.67658 -72.32269 5473 ft 165 kts 172°
2026-05-07 23:40 43.66543 -72.31889 5468 ft 165 kts 172°
2026-05-07 23:40 43.65424 -72.31507 5467 ft 166 kts 172°
2026-05-07 23:41 43.64314 -72.31137 5471 ft 167 kts 172°
2026-05-07 23:41 43.63181 -72.30758 5472 ft 167 kts 172°
2026-05-07 23:41 43.62048 -72.30375 5467 ft 168 kts 172°
2026-05-07 23:41 43.60912 -72.29990 5469 ft 168 kts 172°
2026-05-07 23:42 43.59779 -72.29608 5454 ft 167 kts 172°
2026-05-07 23:42 43.58646 -72.29221 5475 ft 168 kts 172°
2026-05-07 23:42 43.57507 -72.28841 5471 ft 168 kts 172°
2026-05-07 23:42 43.56370 -72.28462 5473 ft 168 kts 172°
2026-05-07 23:43 43.55233 -72.28075 5472 ft 168 kts 172°
2026-05-07 23:43 43.54094 -72.27706 5471 ft 167 kts 173°
2026-05-07 23:43 43.52978 -72.27370 5465 ft 166 kts 174°
2026-05-07 23:43 43.51848 -72.27037 5467 ft 166 kts 174°
2026-05-07 23:44 43.50717 -72.26711 5470 ft 166 kts 174°
2026-05-07 23:44 43.49582 -72.26387 5477 ft 166 kts 174°
2026-05-07 23:44 43.48450 -72.26064 5465 ft 166 kts 174°
2026-05-07 23:44 43.47319 -72.25743 5477 ft 166 kts 174°
2026-05-07 23:45 43.46183 -72.25422 5491 ft 168 kts 174°
2026-05-07 23:45 43.45040 -72.25080 5465 ft 168 kts 174°
2026-05-07 23:45 43.43911 -72.24755 5401 ft 163 kts 174°
2026-05-07 23:45 43.42824 -72.24445 5370 ft 156 kts 173°
2026-05-07 23:46 43.41758 -72.24125 5415 ft 156 kts 174°
2026-05-07 23:46 43.40691 -72.23807 5433 ft 157 kts 174°
2026-05-07 23:46 43.39631 -72.23494 5464 ft 159 kts 174°
2026-05-07 23:46 43.38541 -72.23173 5478 ft 161 kts 174°
2026-05-07 23:47 43.37440 -72.22850 5470 ft 162 kts 174°
2026-05-07 23:47 43.36337 -72.22525 5476 ft 162 kts 174°
2026-05-07 23:47 43.35228 -72.22206 5488 ft 164 kts 175°
2026-05-07 23:47 43.34107 -72.21879 5477 ft 165 kts 174°
2026-05-07 23:48 43.32981 -72.21552 5470 ft 164 kts 174°
2026-05-07 23:48 43.31863 -72.21227 5474 ft 164 kts 174°
2026-05-07 23:48 43.30758 -72.20905 5477 ft 165 kts 174°
2026-05-07 23:48 43.29639 -72.20573 5467 ft 164 kts 174°
2026-05-07 23:49 43.28521 -72.20242 5490 ft 165 kts 174°
2026-05-07 23:49 43.27392 -72.19908 5490 ft 167 kts 174°
2026-05-07 23:49 43.26255 -72.19576 5484 ft 167 kts 174°
2026-05-07 23:49 43.25120 -72.19239 5475 ft 167 kts 174°
2026-05-07 23:50 43.23979 -72.18904 5476 ft 167 kts 174°
2026-05-07 23:50 43.22841 -72.18587 5472 ft 167 kts 175°
2026-05-07 23:50 43.21703 -72.18278 5478 ft 167 kts 175°
2026-05-07 23:50 43.20561 -72.17972 5482 ft 168 kts 175°
2026-05-07 23:51 43.19409 -72.17674 5495 ft 169 kts 175°
2026-05-07 23:51 43.18267 -72.17380 5475 ft 169 kts 175°
2026-05-07 23:51 43.17112 -72.17083 5472 ft 168 kts 175°
2026-05-07 23:51 43.15956 -72.16788 5485 ft 168 kts 175°
2026-05-07 23:52 43.14801 -72.16491 5483 ft 169 kts 175°
2026-05-07 23:52 43.13643 -72.16198 5476 ft 169 kts 175°
2026-05-07 23:52 43.12490 -72.15907 5486 ft 169 kts 175°
2026-05-07 23:52 43.11335 -72.15606 5495 ft 169 kts 175°
2026-05-07 23:53 43.10195 -72.15313 5492 ft 169 kts 175°
2026-05-07 23:53 43.09044 -72.15021 5488 ft 168 kts 175°
2026-05-07 23:53 43.07895 -72.14728 5484 ft 168 kts 175°
2026-05-07 23:53 43.06752 -72.14437 5474 ft 166 kts 175°
2026-05-07 23:54 43.05617 -72.14146 5477 ft 166 kts 175°
2026-05-07 23:54 43.04479 -72.13871 5497 ft 166 kts 176°
2026-05-07 23:54 43.03336 -72.13601 5483 ft 166 kts 176°
2026-05-07 23:54 43.02198 -72.13336 5488 ft 166 kts 176°
2026-05-07 23:55 43.01055 -72.13069 5495 ft 167 kts 176°
2026-05-07 23:55 42.99912 -72.12816 5484 ft 166 kts 177°
2026-05-07 23:55 42.98767 -72.12589 5487 ft 166 kts 178°
2026-05-07 23:55 42.97618 -72.12363 5487 ft 166 kts 178°
2026-05-07 23:56 42.96476 -72.12151 5503 ft 166 kts 178°
2026-05-07 23:56 42.95339 -72.11943 5503 ft 167 kts 178°
2026-05-07 23:56 42.94184 -72.11726 5500 ft 167 kts 178°
2026-05-07 23:56 42.93035 -72.11516 5494 ft 166 kts 178°
2026-05-07 23:57 42.91887 -72.11302 5497 ft 166 kts 178°
2026-05-07 23:57 42.90736 -72.11082 5496 ft 167 kts 178°
2026-05-07 23:57 42.89591 -72.10867 5491 ft 166 kts 178°
2026-05-07 23:57 42.88451 -72.10658 5494 ft 166 kts 179°
2026-05-07 23:58 42.87309 -72.10440 5482 ft 165 kts 178°
2026-05-07 23:58 42.86170 -72.10224 5493 ft 165 kts 178°
2026-05-07 23:58 42.85038 -72.10007 5486 ft 165 kts 177°
2026-05-07 23:58 42.83898 -72.09787 5478 ft 164 kts 178°
2026-05-07 23:59 42.82767 -72.09600 5495 ft 163 kts 181°
2026-05-07 23:59 42.81631 -72.09486 5497 ft 163 kts 182°
2026-05-07 23:59 42.80497 -72.09399 5486 ft 163 kts 182°
2026-05-07 23:59 42.79360 -72.09329 5490 ft 164 kts 183°
2026-05-08 00:00 42.78214 -72.09257 5493 ft 165 kts 184°
2026-05-08 00:00 42.77083 -72.09194 5492 ft 165 kts 184°
2026-05-08 00:00 42.75932 -72.09162 5494 ft 166 kts 185°
2026-05-08 00:00 42.74774 -72.09142 5493 ft 166 kts 185°
2026-05-08 00:01 42.73621 -72.09129 5497 ft 166 kts 185°
2026-05-08 00:01 42.72467 -72.09119 5492 ft 166 kts 185°
2026-05-08 00:01 42.71310 -72.09101 5488 ft 165 kts 185°
2026-05-08 00:01 42.70165 -72.09097 5489 ft 164 kts 185°
2026-05-08 00:02 42.69018 -72.09089 5491 ft 164 kts 185°
2026-05-08 00:02 42.67874 -72.09068 5493 ft 164 kts 184°
2026-05-08 00:02 42.66723 -72.08980 5500 ft 167 kts 181°
2026-05-08 00:02 42.65562 -72.08840 5496 ft 168 kts 178°
2026-05-08 00:03 42.64405 -72.08579 5491 ft 169 kts 174°
2026-05-08 00:03 42.63267 -72.08253 5494 ft 170 kts 170°
2026-05-08 00:03 42.62127 -72.07822 5494 ft 170 kts 168°
2026-05-08 00:03 42.60993 -72.07359 5494 ft 170 kts 167°
2026-05-08 00:04 42.59859 -72.06887 5484 ft 171 kts 167°
2026-05-08 00:04 42.58721 -72.06403 5486 ft 170 kts 167°
2026-05-08 00:04 42.57598 -72.05921 5500 ft 171 kts 167°
2026-05-08 00:04 42.56459 -72.05442 5499 ft 172 kts 167°
2026-05-08 00:05 42.55317 -72.04959 5499 ft 172 kts 167°
2026-05-08 00:05 42.54179 -72.04473 5500 ft 171 kts 167°
2026-05-08 00:05 42.53039 -72.03995 5503 ft 172 kts 167°
2026-05-08 00:05 42.51889 -72.03512 5503 ft 173 kts 167°
2026-05-08 00:06 42.50752 -72.02974 5502 ft 174 kts 160°
2026-05-08 00:06 42.49662 -72.02263 5498 ft 174 kts 156°
2026-05-08 00:06 42.48589 -72.01518 5272 ft 172 kts 156°
2026-05-08 00:06 42.47525 -72.00759 4820 ft 172 kts 155°
2026-05-08 00:07 42.46477 -71.99997 4322 ft 170 kts 155°
2026-05-08 00:07 42.45440 -71.99234 3761 ft 169 kts 155°
2026-05-08 00:07 42.44425 -71.98481 3229 ft 167 kts 155°
2026-05-08 00:07 42.43401 -71.97717 2636 ft 168 kts 155°
2026-05-08 00:08 42.42388 -71.96959 2409 ft 163 kts 155°
2026-05-08 00:08 42.41410 -71.96219 2429 ft 159 kts 155°
2026-05-08 00:08 42.40450 -71.95487 2436 ft 158 kts 155°
2026-05-08 00:08 42.39496 -71.94755 2428 ft 157 kts 155°
2026-05-08 00:09 42.38551 -71.94023 2417 ft 156 kts 155°
2026-05-08 00:09 42.37611 -71.93293 2397 ft 152 kts 154°
2026-05-08 00:09 42.36710 -71.92607 2263 ft 145 kts 156°
2026-05-08 00:09 42.35890 -71.91952 2243 ft 136 kts 155°
2026-05-08 00:10 42.35042 -71.91306 2259 ft 143 kts 156°
2026-05-08 00:10 42.34149 -71.90645 2276 ft 149 kts 155°
2026-05-08 00:10 42.33239 -71.89981 2283 ft 149 kts 156°
2026-05-08 00:10 42.32319 -71.89338 2279 ft 149 kts 157°
2026-05-08 00:11 42.31396 -71.88704 2282 ft 147 kts 158°
2026-05-08 00:11 42.30528 -71.88104 2247 ft 136 kts 157°
2026-05-08 00:11 42.29668 -71.87569 2161 ft 133 kts 160°
2026-05-08 00:11 42.28826 -71.87084 2096 ft 130 kts 162°
2026-05-08 00:12 42.28032 -71.86509 2113 ft 130 kts 149°
2026-05-08 00:12 42.27411 -71.85566 2089 ft 135 kts 125°
2026-05-08 00:12 42.26934 -71.84518 2232 ft 130 kts 114°
2026-05-08 00:12 42.26636 -71.83342 2295 ft 132 kts 103°
2026-05-08 00:13 42.26422 -71.82112 2297 ft 136 kts 100°
2026-05-08 00:13 42.26123 -71.80904 2298 ft 135 kts 121°
2026-05-08 00:13 42.25513 -71.79962 2235 ft 131 kts 147°
2026-05-08 00:13 42.24718 -71.79595 2337 ft 113 kts 186°
2026-05-08 00:14 42.24248 -71.79732 2413 ft 101 kts 212°
2026-05-08 00:14 42.23514 -71.80560 2270 ft 105 kts 239°
2026-05-08 00:14 42.23093 -71.81301 2369 ft 90 kts 254°
2026-05-08 00:14 42.23086 -71.82076 2416 ft 81 kts 291°
2026-05-08 00:15 42.23379 -71.82745 2355 ft 87 kts 300°
2026-05-08 00:15 42.23658 -71.83127 2370 ft 86 kts 322°
2026-05-08 00:15 42.24268 -71.83318 2323 ft 96 kts 350°
2026-05-08 00:15 42.24948 -71.83244 2175 ft 96 kts 358°
2026-05-08 00:16 42.25593 -71.83191 1944 ft 92 kts 351°
2026-05-08 00:16 42.26200 -71.83396 1694 ft 89 kts 327°
2026-05-08 00:16 42.26470 -71.84114 1375 ft 90 kts 282°
2026-05-08 00:16 42.26518 -71.84926 1347 ft 84 kts 271°
2026-05-08 00:17 42.26554 -71.85706 1203 ft 87 kts 278°
2026-05-08 00:17 42.26597 -71.86529 1034 ft 87 kts 268°
2026-05-08 00:17 42.26626 -71.87293 990 ft 72 kts 275°
2026-05-08 00:17 42.26655 -71.87706 984 ft 17 kts 285°
2026-05-08 00:18 42.26707 -71.87810 984 ft 0 kts 353°
2026-05-08 00:19 42.26708 -71.87810 984 ft 3 kts 356°
2026-05-08 00:19 42.26772 -71.87685 987 ft 25 kts 64°
2026-05-08 00:20 42.26858 -71.87445 990 ft 30 kts 65°
2026-05-08 00:20 42.26915 -71.87292 992 ft 12 kts 60°
2026-05-08 00:20 42.26971 -71.87252 993 ft 7 kts 28°
2026-05-08 00:20 42.26979 -71.87238 994 ft 0 kts 69°